Temperature
11 11 11 11 11 11 11 11 11 11 11 11 11 11 11 11 11 11 11 11 11 11 11 11 11 11 11 11 11 11 11 11 11 11 12 12 12 12 12 12 12 12 11
11 11 11 11 11 11 11 11 11 11 11 11 11 11 11 11 11 11 11 11 11 11 11 11 10 11 11 11 10 10 11 11 11 11 10 11 11 11 11 11 11 11 11
11 11 11 11 11 11 11 11 11 11 11 11 11 11 11 11 11 11 10 10 10 10 10 10 10 10 10 10 10 10 10 10 10 10 10 10 10 10 10 11 11 11 11
11 11 11 11 11 11 11 11 11 11 10 10 10 10 10 10 10 10 10 10 10 10 10 10 10 10 10 10 9 9 9 9 9 9 9 9 9 9 9 10 10 10 10
11 11 11 11 11 11 11 10 10 10 10 10 10 10 10 10 10 10 10 10 10 10 10 9 9 9 9 9 9 9 9 9 9 9 9 9 9 9 8 9 9 9 10
10 10 10 10 10 10 10 10 10 10 10 10 10 10 10 9 9 9 9 9 9 9 9 9 9 9 9 9 9 9 9 8 8 8 8 8 8 8 8 8 8 8 9
10 10 10 10 10 10 10 10 10 10 10 10 9 9 9 9 9 9 9 9 9 9 9 9 9 9 9 8 8 8 8 8 8 8 8 8 8 7 7 7 8 8 8
10 10 10 10 10 10 10 10 10 10 10 9 9 9 9 9 9 9 9 9 9 9 8 8 8 8 8 8 8 8 8 8 8 7 7 7 7 7 7 7 7 7 7
9 10 10 10 10 10 10 10 10 10 9 9 9 9 9 9 8 8 8 8 8 8 8 8 8 8 8 8 8 8 8 7 7 7 7 7 7 7 7 7 7 6 6
9 9 9 9 9 9 9 9 9 9 9 9 9 9 8 8 8 8 8 8 8 8 7 7 7 7 7 7 7 7 7 7 7 7 7 7 7 7 6 6 6 6 6
8 8 8 9 9 9 9 9 9 9 9 9 8 8 8 8 8 8 8 8 8 7 7 7 7 7 7 7 7 7 7 7 7 7 7 6 6 6 6 6 6 6 6
8 8 8 8 8 8 8 8 8 8 8 8 8 8 8 8 8 8 8 7 7 7 7 7 7 7 7 6 6 6 6 6 6 6 6 6 6 6 5 5 6 5 5
7 7 7 8 8 8 8 8 8 8 8 8 8 8 8 8 8 7 7 7 7 7 7 7 6 6 6 6 6 6 6 6 6 6 6 6 5 5 5 5 5 5 5
7 7 7 7 7 7 7 7 7 7 7 7 7 7 7 7 7 7 7 7 7 7 7 6 6 6 6 6 6 6 6 6 6 5 5 5 5 5 5 5 5 5 5
6 6 6 6 7 7 7 7 7 7 7 7 7 7 7 7 7 7 6 6 6 6 6 6 6 6 6 6 5 5 5 5 5 5 5 5 5 5 5 5 5 4 4
6 6 6 6 6 6 6 6 6 6 6 6 6 6 6 6 6 6 6 6 6 6 6 6 6 6 5 5 5 5 5 5 5 5 5 5 5 5 5 4 4 4 4
6 6 6 6 6 6 6 6 6 6 6 6 6 6 6 6 6 6 5 5 5 5 5 5 5 5 5 5 5 4 4 4 4 4 4 4 4 4 4 4 4 4 4
5 5 5 5 5 5 5 5 5 5 5 5 5 5 5 5 5 5 5 5 5 5 5 5 5 4 4 4 4 4 4 4 4 4 4 4 4 4 4 4 4 4 3
5 5 5 5 5 5 4 4 4 5 5 5 5 4 4 4 4 4 4 4 4 4 4 4 4 4 4 3 3 3 3 3 4 4 4 3 3 3 3 3 3 3 3
4 4 4 4 4 4 4 4 4 4 4 4 4 4 4 4 4 4 4 4 3 3 3 3 3 3 3 3 3 3 3 3 3 3 3 3 3 3 3 3 3 3 3
4 4 4 4 4 3 3 3 3 3 3 3 3 3 3 3 3 3 3 3 3 3 3 3 3 3 3 3 3 2 2 2 2 3 3 3 3 2 2 2 2 2 2
3 3 3 3 3 3 3 3 3 3 3 3 3 3 3 3 3 2 2 2 2 2 2 2 2 2 2 2 2 2 2 2 2 2 2 2 2 2 2 2 2 2 1
3 3 3 3 3 2 2 2 2 2 2 3 3 3 3 2 2 2 2 2 2 1 1 1 2 2 2 2 2 2 2 2 1 2 2 2 1 1 1 1 1 1 1
2 2 2 2 2 2 2 2 2 2 2 2 2 2 2 2 2 1 1 1 1 1 1 1 1 1 1 1 1 1 1 1 1 1 1 1 1 1 1 1 1 1 0
2 2 1 1 2 1 2 2 1 1 2 2 2 2 2 2 1 1 1 1 1 0 0 0 0 1 1 1 1 1 1 1 1 0 0 0 0 0 0 0 0 0 -0
1 1 1 1 1 1 1 1 1 1 1 1 1 1 1 1 1 0 0 0 0 0 0 0 0 0 0 0 0 0 0 0 0 -0 -0 -0 -0 -0 -0 -0 -0 -1 -1
Wind_Speed
1 1 1 1 2 2 2 2 3 2 2 2 1 1 1 0 1 1 2 2 2 2 1 1 0 0 1 2 2 1 1 1 1 1 2 3 2 2 2 2 2 2 3
1 0 1 1 1 1 1 2 2 2 2 1 1 1 1 1 1 0 1 2 2 1 1 0 1 1 1 1 1 1 1 1 0 1 1 2 3 2 2 2 2 3 2
4 2 2 2 1 2 2 2 2 2 1 2 2 2 2 2 1 1 1 1 2 1 1 0 1 1 1 1 2 2 2 2 2 1 2 1 3 2 2 1 2 2 2
2 2 2 2 2 3 2 1 1 1 1 2 2 3 1 0 1 1 1 2 2 2 1 1 1 1 1 1 2 2 2 2 2 2 2 2 2 2 2 2 2 1 2
2 2 3 3 2 1 1 2 1 1 1 2 3 3 2 1 0 0 1 2 2 2 2 1 1 1 1 2 1 1 2 2 2 2 1 2 2 2 3 4 3 2 2
2 2 2 1 1 1 0 1 2 1 1 2 2 3 3 2 1 1 1 1 1 1 1 1 1 1 1 2 2 2 2 2 2 2 2 2 2 2 3 4 3 3 2
1 1 2 1 1 1 1 1 2 2 1 2 2 3 3 3 3 3 2 2 2 2 2 2 2 2 2 2 2 2 3 3 3 3 3 3 3 2 3 3 3 3 2
1 1 2 2 2 2 2 2 3 3 2 2 3 2 3 2 3 3 3 3 3 3 3 2 2 2 2 2 2 2 3 3 3 4 3 3 3 3 3 3 2 3 2
1 2 2 2 2 2 2 3 3 3 3 3 3 3 3 3 4 4 3 3 3 3 3 3 3 3 3 3 2 3 3 3 3 3 4 3 3 2 3 3 3 3 4
2 2 2 2 2 2 2 2 2 3 3 3 3 3 4 4 4 3 4 4 4 4 3 3 3 3 3 3 3 3 3 3 4 3 4 4 3 3 3 3 3 4 4
2 3 3 3 2 2 2 2 2 2 2 3 3 3 4 4 4 4 5 5 4 4 4 5 4 4 4 4 4 4 4 4 4 4 4 5 4 3 3 3 3 4 4
3 2 3 3 3 3 3 3 3 3 3 3 3 3 3 3 4 5 5 4 5 5 5 5 5 5 5 5 5 5 5 5 5 5 5 5 4 4 4 4 4 4 4
3 2 3 3 3 4 4 4 3 4 4 3 3 3 3 4 5 5 5 4 5 5 5 5 6 6 6 5 5 6 6 6 6 6 6 6 5 5 4 4 4 4 3
3 2 3 4 4 4 4 4 4 4 3 3 3 4 5 5 5 5 5 5 5 5 5 6 6 6 6 6 6 6 6 6 6 6 6 6 6 6 5 5 5 4 3
4 3 3 4 4 4 4 4 4 4 3 3 4 5 5 5 4 4 5 5 5 6 6 6 6 6 6 6 6 6 6 6 6 6 6 6 8 8 7 5 5 5 4
5 5 4 4 4 5 5 5 5 5 3 4 5 5 4 4 4 5 5 4 5 5 5 6 6 6 6 9 11 8 6 6 7 7 6 6 7 8 10 10 9 7 6
4 4 5 5 6 5 5 5 5 4 4 4 5 5 4 5 5 4 4 5 5 5 5 6 6 7 8 11 12 11 6 6 7 7 6 5 6 7 5 7 8 8 10
4 5 5 5 5 4 4 5 4 4 4 5 5 5 5 5 5 4 5 5 5 5 5 6 6 6 8 11 12 11 7 6 7 7 7 7 6 6 6 5 5 4 5
5 5 5 5 5 5 4 4 4 5 5 5 6 6 5 5 5 5 6 5 4 5 5 5 6 6 8 11 11 10 5 5 7 7 7 7 7 9 9 6 5 5 4
4 4 4 4 5 5 4 4 5 5 6 7 7 6 5 6 6 7 6 5 5 6 6 6 6 7 8 10 11 10 4 6 6 5 6 9 9 10 10 7 6 7 5
5 5 4 4 5 5 3 4 5 7 8 7 6 6 6 6 6 6 5 5 5 5 6 6 6 7 8 10 12 11 6 6 6 5 5 6 10 11 11 9 7 8 5
6 5 5 6 6 5 4 6 7 8 7 6 6 6 6 6 5 5 5 5 5 6 6 6 7 6 7 9 10 12 11 9 7 6 5 6 10 11 10 8 8 8 6
7 5 5 7 7 5 5 7 9 7 6 6 6 6 6 6 5 5 6 5 5 5 6 6 7 6 5 7 12 12 12 11 7 6 8 8 9 8 6 7 8 6 4
7 6 6 7 8 7 7 8 8 7 6 7 7 6 6 6 5 5 5 5 6 6 6 6 7 6 6 5 5 5 6 8 7 6 7 9 8 5 5 5 4 4 4
6 6 6 8 9 8 8 8 7 6 7 7 7 6 6 6 6 6 6 7 7 8 8 7 7 7 8 9 9 6 5 5 5 4 3 3 3 4 3 3 3 3 3
7 7 7 8 9 8 9 9 7 7 7 7 6 6 5 5 6 6 7 9 11 13 15 14 12 9 11 13 12 11 10 10 9 5 4 5 5 5 5 5 4 4 4
Wind_Direction
275 24 70 100 105 92 102 113 119 116 103 98 107 130 146 120 81 57 31 29 32 46 78 91 132 207 202 226 235 256 268 275 288 302 306 300 274 257 246 236 229 227 222
286 129 107 110 145 164 150 136 126 114 113 140 154 144 158 167 202 305 15 21 28 17 34 117 214 233 226 240 243 239 253 281 187 178 266 311 318 288 258 235 223 232 210
227 220 199 193 187 206 208 182 164 138 126 118 105 79 54 35 27 14 342 334 339 327 329 257 228 249 220 231 251 233 226 253 258 217 192 209 249 297 304 281 243 233 217
257 251 238 235 226 223 204 195 172 155 145 130 125 122 128 176 262 255 277 319 330 326 316 292 258 233 235 240 245 231 237 235 260 266 248 242 224 236 290 300 298 267 236
255 268 258 250 252 234 184 187 185 185 160 143 146 143 156 184 272 305 316 328 332 329 323 306 287 265 257 252 251 248 241 232 240 246 249 253 263 239 244 275 298 306 274
278 292 309 319 316 346 23 180 191 211 182 161 157 165 184 190 195 296 290 306 312 303 300 299 269 255 262 265 260 248 242 246 249 251 236 218 221 226 229 253 271 278 287
285 301 321 320 309 307 291 249 220 230 209 189 200 204 205 204 211 233 250 266 278 278 282 284 268 265 254 257 260 251 247 245 247 247 249 242 236 224 224 243 263 269 284
325 292 288 282 287 289 281 259 242 242 228 214 227 225 218 217 226 229 230 242 250 258 265 262 261 260 259 258 256 256 249 243 244 248 246 249 247 233 227 224 236 270 273
303 311 320 316 310 302 283 261 251 253 245 231 232 234 226 223 233 240 237 245 251 261 257 253 254 258 257 251 246 250 252 244 241 244 245 248 249 240 238 229 220 228 258
303 325 333 316 309 301 302 306 273 260 261 250 239 243 236 233 233 234 239 242 249 251 256 259 254 255 257 252 245 250 249 244 249 242 240 244 245 240 235 232 233 228 236
268 286 303 305 303 313 313 302 300 286 282 270 257 254 252 243 237 237 243 244 247 245 245 248 249 249 249 246 242 245 245 248 256 251 240 243 239 238 237 232 232 234 230
275 281 300 316 321 316 313 309 302 292 281 274 267 262 260 252 249 252 252 246 247 247 245 246 248 249 247 242 238 247 245 242 249 251 246 245 240 240 236 230 231 231 223
283 301 318 315 307 306 309 308 300 290 288 280 275 275 271 260 257 259 260 254 250 252 250 243 245 248 248 245 240 239 243 241 241 241 240 243 236 241 239 235 235 233 231
278 289 302 302 298 297 297 300 301 295 294 286 276 273 267 259 258 260 259 255 249 248 248 246 245 245 245 243 240 237 241 244 243 239 238 238 232 235 235 237 237 231 230
282 279 282 288 295 297 296 295 294 296 292 285 277 271 270 265 261 261 259 255 250 250 247 248 250 247 243 242 238 236 238 241 244 242 238 237 236 234 232 233 230 220 225
272 275 278 281 284 285 287 291 290 291 291 284 279 281 281 275 270 268 268 264 260 257 253 250 249 249 250 253 250 243 235 237 239 241 240 239 240 241 242 242 236 223 219
264 271 274 271 270 270 271 278 281 287 288 280 282 284 280 277 274 273 272 268 264 261 259 258 254 256 258 260 259 253 241 235 237 236 238 242 237 236 236 244 244 240 236
250 265 271 274 274 273 278 281 287 287 283 279 279 278 275 274 275 272 267 265 260 257 257 258 255 256 261 263 261 259 249 241 239 233 231 234 238 230 225 225 230 236 244
245 254 258 262 274 277 277 284 290 288 286 281 278 275 271 271 271 269 267 264 261 262 260 257 253 253 262 264 262 258 244 246 246 237 231 229 233 238 231 217 222 234 249
259 264 271 275 280 281 283 285 286 288 282 278 275 273 267 262 262 261 263 262 257 259 261 261 253 251 257 265 264 256 239 246 247 242 235 236 235 236 228 212 211 228 237
271 272 275 274 274 277 275 277 280 275 273 276 277 276 268 262 259 260 260 261 262 263 262 263 263 256 257 265 264 258 241 238 240 240 238 235 239 237 231 220 215 225 214
277 273 273 277 279 274 265 271 272 272 275 275 275 274 270 267 265 257 262 259 258 264 266 266 272 263 258 260 263 258 252 241 234 240 238 234 236 236 230 222 217 217 207
269 266 263 275 279 268 252 263 271 277 278 274 270 269 270 265 257 250 257 261 253 255 262 260 265 270 262 258 262 259 253 247 241 239 237 236 235 231 228 221 213 207 193
267 267 265 270 275 270 259 257 267 270 268 269 271 270 269 271 264 254 248 249 250 252 255 257 259 264 263 259 256 248 251 249 243 238 235 229 223 214 211 211 210 197 193
269 264 261 266 270 271 270 267 263 260 262 266 269 270 265 264 266 259 249 247 244 242 248 252 249 254 263 259 253 251 244 232 228 219 218 207 201 205 203 198 197 192 192
271 270 268 268 272 271 271 270 262 252 254 265 267 264 264 264 262 266 273 255 251 259 257 254 253 253 255 263 263 256 252 244 225 214 216 219 216 215 212 211 211 205 204
Height
1483 1484 1485 1486 1487 1487 1488 1488 1489 1490 1491 1491 1492 1493 1494 1495 1496 1497 1498 1499 1500 1501 1502 1503 1503 1504 1504 1505 1506 1507 1507 1507 1508 1508 1507 1507 1508 1508 1508 1509 1510 1510 1511
1481 1483 1484 1485 1486 1486 1487 1488 1488 1489 1490 1491 1491 1491 1492 1493 1494 1495 1496 1497 1498 1499 1499 1500 1501 1501 1501 1502 1502 1503 1504 1504 1504 1505 1504 1503 1504 1503 1504 1505 1505 1506 1507
1480 1482 1483 1484 1485 1486 1487 1487 1488 1488 1489 1490 1490 1490 1490 1490 1492 1493 1494 1495 1495 1496 1497 1497 1497 1498 1498 1498 1499 1500 1500 1500 1501 1501 1502 1501 1500 1500 1500 1500 1501 1502 1502
1479 1480 1481 1482 1483 1484 1485 1486 1487 1487 1488 1488 1488 1488 1489 1489 1490 1491 1492 1492 1493 1494 1494 1495 1495 1495 1495 1495 1495 1496 1497 1497 1497 1498 1498 1499 1498 1498 1496 1497 1497 1498 1498
1478 1479 1480 1481 1482 1483 1484 1484 1485 1486 1487 1487 1488 1488 1488 1488 1488 1488 1489 1490 1491 1491 1492 1492 1492 1492 1492 1492 1492 1492 1493 1493 1493 1494 1494 1494 1494 1494 1494 1492 1492 1493 1494
1477 1478 1479 1480 1481 1481 1482 1483 1484 1485 1485 1486 1486 1486 1486 1486 1487 1486 1487 1487 1488 1489 1489 1488 1488 1488 1489 1489 1489 1489 1489 1489 1489 1490 1490 1490 1490 1490 1490 1489 1489 1489 1489
1475 1477 1478 1479 1479 1480 1481 1482 1482 1483 1483 1484 1484 1484 1485 1485 1485 1485 1485 1485 1485 1485 1486 1485 1485 1485 1485 1485 1485 1485 1485 1485 1485 1485 1486 1486 1486 1487 1487 1486 1485 1484 1484
1474 1475 1476 1477 1478 1479 1480 1480 1480 1481 1481 1482 1482 1483 1483 1483 1483 1483 1483 1483 1482 1482 1482 1482 1482 1482 1482 1481 1481 1481 1481 1481 1481 1481 1481 1481 1482 1482 1482 1482 1482 1480 1480
1474 1475 1475 1476 1477 1477 1478 1478 1478 1478 1479 1479 1480 1480 1480 1480 1480 1480 1480 1479 1479 1479 1479 1478 1478 1478 1478 1478 1478 1477 1477 1477 1477 1477 1477 1477 1477 1477 1478 1478 1478 1479 1476
1473 1474 1474 1475 1475 1475 1475 1476 1476 1476 1476 1477 1477 1477 1477 1477 1477 1477 1476 1476 1476 1475 1475 1474 1474 1474 1474 1474 1474 1473 1473 1473 1473 1473 1473 1472 1472 1473 1473 1473 1474 1474 1473
1473 1473 1473 1473 1473 1473 1474 1473 1473 1473 1473 1474 1474 1473 1473 1473 1473 1473 1473 1472 1472 1472 1471 1471 1470 1470 1470 1470 1469 1469 1468 1468 1468 1468 1468 1468 1468 1468 1468 1469 1469 1469 1469
1471 1471 1471 1471 1471 1471 1471 1470 1470 1470 1470 1470 1470 1470 1470 1470 1469 1469 1469 1468 1468 1468 1467 1466 1466 1465 1465 1465 1464 1464 1464 1463 1463 1463 1463 1463 1464 1464 1464 1464 1464 1464 1464
1469 1469 1469 1469 1468 1468 1468 1468 1467 1467 1467 1467 1466 1466 1466 1465 1465 1465 1464 1464 1463 1463 1463 1462 1461 1461 1460 1460 1460 1459 1459 1459 1458 1458 1458 1458 1458 1458 1459 1459 1459 1459 1459
1467 1466 1466 1466 1465 1465 1465 1465 1464 1464 1463 1463 1462 1462 1462 1461 1461 1460 1460 1459 1459 1458 1457 1457 1456 1455 1455 1455 1454 1454 1454 1453 1453 1453 1453 1453 1453 1453 1454 1454 1454 1454 1454
1464 1464 1463 1463 1462 1462 1462 1461 1461 1461 1460 1459 1458 1458 1458 1457 1456 1456 1455 1454 1454 1453 1452 1451 1451 1450 1450 1449 1449 1449 1448 1448 1448 1448 1448 1448 1448 1448 1449 1449 1449 1449 1449
1462 1461 1460 1460 1459 1459 1458 1458 1457 1457 1456 1455 1454 1454 1453 1452 1451 1451 1450 1449 1448 1448 1447 1446 1445 1445 1444 1444 1443 1443 1442 1442 1442 1442 1442 1443 1443 1443 1443 1444 1444 1444 1444
1458 1458 1458 1457 1456 1455 1455 1454 1453 1452 1451 1451 1450 1449 1448 1447 1446 1445 1445 1444 1443 1442 1441 1440 1440 1439 1438 1438 1437 1437 1437 1436 1436 1436 1437 1437 1437 1438 1438 1438 1438 1438 1439
1455 1455 1454 1453 1453 1452 1451 1450 1449 1448 1447 1445 1444 1444 1443 1442 1441 1440 1439 1438 1438 1437 1436 1435 1434 1433 1432 1432 1432 1431 1430 1430 1430 1430 1430 1431 1431 1432 1432 1432 1432 1433 1433
1452 1452 1451 1450 1449 1448 1446 1445 1444 1443 1442 1441 1440 1439 1438 1436 1435 1434 1433 1432 1432 1431 1430 1429 1428 1427 1426 1426 1426 1425 1424 1423 1423 1424 1424 1424 1425 1426 1426 1426 1426 1427 1427
1449 1448 1447 1446 1445 1444 1442 1441 1439 1438 1437 1436 1435 1434 1433 1431 1430 1429 1428 1427 1426 1425 1424 1423 1422 1421 1420 1420 1420 1419 1418 1417 1417 1417 1418 1418 1419 1420 1420 1420 1421 1421 1421
1445 1444 1443 1441 1440 1439 1438 1436 1435 1433 1432 1431 1430 1429 1428 1426 1425 1424 1423 1421 1420 1419 1417 1416 1416 1415 1414 1414 1413 1413 1412 1411 1411 1411 1411 1412 1413 1414 1414 1415 1415 1416 1416
1440 1439 1438 1436 1436 1435 1433 1431 1429 1428 1427 1426 1425 1423 1422 1421 1420 1418 1417 1415 1414 1412 1411 1410 1409 1408 1408 1407 1406 1406 1406 1405 1405 1405 1405 1406 1407 1408 1409 1409 1410 1410 1411
1435 1434 1433 1431 1430 1429 1428 1426 1424 1423 1422 1420 1419 1418 1416 1415 1414 1412 1411 1409 1408 1406 1404 1403 1402 1401 1401 1401 1400 1400 1399 1399 1399 1398 1399 1400 1401 1402 1403 1404 1404 1405 1405
1430 1428 1427 1425 1424 1423 1422 1420 1418 1417 1416 1414 1413 1411 1410 1408 1407 1406 1404 1403 1401 1400 1398 1397 1396 1395 1394 1394 1394 1393 1393 1392 1392 1392 1393 1394 1395 1396 1397 1397 1398 1399 1400
1424 1423 1421 1419 1417 1416 1415 1414 1412 1411 1409 1407 1406 1405 1403 1402 1400 1399 1398 1396 1395 1394 1392 1391 1390 1389 1387 1388 1388 1387 1386 1386 1386 1386 1387 1388 1389 1389 1390 1391 1392 1393 1394
1418 1416 1414 1412 1411 1409 1408 1407 1406 1404 1402 1400 1399 1398 1396 1395 1393 1392 1390 1389 1388 1387 1386 1385 1384 1382 1382 1382 1381 1381 1381 1380 1381 1381 1381 1381 1382 1383 1384 1385 1386 1387 1389